Weather History for Burbank, CA

Change the Weather History Date:

Friday, April 4, 2014

  Actual Average Record
Temperature  
Mean Temperature 56 °F 60 °F  
Max Temperature 64 °F 72 °F 99 °F (1989)
Min Temperature 48 °F 48 °F 37 °F (1945)
Degree Days  
Heating Degree Days 9 6  
Month to date heating degree days 39 24  
Since 1 July heating degree days 604 1383  
Cooling Degree Days 0 1  
Month to date cooling degree days 0 4  
Year to date cooling degree days 80 20  
Growing Degree Days 6 (Base 50)    
Moisture  
Dew Point 40 °F    
Average Humidity 56    
Maximum Humidity 77    
Minimum Humidity 34    
Precipitation  
Precipitation 0.00 in 0.05 in 1.15 in (2006)
Month to date precipitation 0.04 0.21  
Year to date precipitation 4.91 11.19  
Since 1 July precipitation 5.34 15.95  
Sea Level Pressure  
Sea Level Pressure 29.96 in    
Wind  
Wind Speed 5 mph (SSE)    
Max Wind Speed 14 mph    
Max Gust Speed 22 mph    
Visibility 10 miles    
Events      
T = Trace of Precipitation, MM = Missing Value Source: NWS Daily Summary

Daily Weather History Graph

Daily Weather History Graph

Search for Another Location

Airport:

Trip Planner

Search our weather history database for the weather conditions in past years. The results will help you decide how hot, cold, wet, or windy it might be!

Date:

Astronomy

Apr. 04, 2014 Rise Set
Actual Time 6:36 AM PDT 7:16 PM PDT
Civil Twilight 6:11 AM PDT 7:42 PM PDT
Nautical Twilight 5:41 AM PDT 8:11 PM PDT
Astronomical Twilight 5:10 AM PDT 8:42 PM PDT
Moon 10:06 AM PDT (4/4) No Moon Set
Length of Visible Light 13h 30m
Length of Day
12h 40m
Waxing Crescent, 26% of the Moon is Illuminated
Apr 4
Waxing Crescent
Apr 7
First Quarter
Apr 15
Full
Apr 22
Last Quarter
Apr 28
New

Hourly Weather History & Observations

Time (PDT) Temp. Dew Point Humidity Pressure Visibility Wind Dir Wind Speed Gust Speed Precip Events Conditions
12:53 AM 52.0 °F 42.1 °F 69% 30.01 in 10.0 mi Calm Calm - N/A   Clear
1:53 AM 51.1 °F 41.0 °F 68% 30.00 in 10.0 mi Calm Calm - N/A   Clear
2:53 AM 50.0 °F 41.0 °F 71% 29.99 in 10.0 mi Calm Calm - N/A   Clear
3:53 AM 50.0 °F 41.0 °F 71% 29.97 in 10.0 mi Calm Calm - N/A   Clear
4:53 AM 48.9 °F 41.0 °F 74% 29.97 in 10.0 mi Calm Calm - N/A   Clear
5:53 AM 48.9 °F 39.9 °F 71% 29.97 in 10.0 mi Calm Calm - N/A   Clear
6:53 AM 48.9 °F 39.9 °F 71% 29.98 in 10.0 mi WNW 3.5 mph - N/A   Clear
7:53 AM 51.1 °F 41.0 °F 68% 30.00 in 10.0 mi Calm Calm - N/A   Clear
8:53 AM 52.0 °F 42.1 °F 69% 30.00 in 10.0 mi Calm Calm - N/A   Clear
9:53 AM 55.9 °F 42.1 °F 60% 29.99 in 10.0 mi Variable 3.5 mph - N/A   Clear
10:53 AM 59.0 °F 39.9 °F 49% 29.99 in 10.0 mi SSW 8.1 mph - N/A   Clear
11:53 AM 61.0 °F 39.9 °F 46% 29.98 in 10.0 mi Variable 5.8 mph - N/A   Clear
12:53 PM 62.1 °F 37.9 °F 41% 29.97 in 10.0 mi Variable 5.8 mph - N/A   Clear
1:53 PM 63.0 °F 39.9 °F 43% 29.95 in 10.0 mi South 12.7 mph - N/A   Clear
2:53 PM 63.0 °F 33.1 °F 33% 29.94 in 10.0 mi South 10.4 mph - N/A   Clear
3:53 PM 63.0 °F 35.1 °F 35% 29.92 in 10.0 mi SSE 12.7 mph - N/A   Partly Cloudy
4:53 PM 61.0 °F 34.0 °F 36% 29.92 in 10.0 mi South 9.2 mph - N/A   Clear
5:53 PM 61.0 °F 35.1 °F 38% 29.91 in 10.0 mi South 8.1 mph - N/A   Clear
6:53 PM 57.9 °F 39.9 °F 51% 29.91 in 10.0 mi South 8.1 mph - N/A   Clear
7:53 PM 55.9 °F 45.0 °F 67% 29.92 in 10.0 mi SSE 3.5 mph - N/A   Clear
8:53 PM 55.9 °F 44.1 °F 64% 29.94 in 10.0 mi East 5.8 mph - N/A   Clear
9:53 PM 55.0 °F 45.0 °F 69% 29.94 in 10.0 mi East 4.6 mph - N/A   Clear
10:53 PM 53.1 °F 46.9 °F 80% 29.94 in 10.0 mi ESE 4.6 mph - N/A   Clear
11:53 PM 53.1 °F 44.1 °F 71% 29.94 in 10.0 mi ENE 3.5 mph - N/A   Clear